Worland, WY

5:40 PM MST on November 19, 2017 (GMT -0700)
Worland Municipal

Weather History for KWRL - December, 2013

Change the Weather History Date:

Thursday, December 19, 2013

  Actual Average Record
Temperature  
Mean Temperature 10 °F 16 °F  
Max Temperature 27 °F 30 °F 50 °F (2003)
Min Temperature -7 °F 3 °F -22 °F (1992)
Degree Days  
Heating Degree Days 55 49  
Month to date heating degree days 974 882  
Since 1 July heating degree days 2830 2774  
Cooling Degree Days 0 0  
Month to date cooling degree days 0 0  
Year to date cooling degree days 852 535  
Moisture  
Dew Point 9 °F    
Average Humidity 83    
Maximum Humidity 96    
Minimum Humidity 70    
Precipitation  
Precipitation 0.02 in 0.00 in 0.05 in (1967)
Month to date precipitation 0.02 0.14  
Year to date precipitation 7.76 7.48  
Sea Level Pressure  
Sea Level Pressure 29.96 in    
Wind  
Wind Speed 9 mph (NW)    
Max Wind Speed 22 mph    
Max Gust Speed 28 mph    
Visibility 5 miles    
Events Fog , Snow    
T = Trace of Precipitation, MM = Missing Value Source: NWS Daily Summary

Daily Weather History Graph

Daily Weather History Graph

Search for Another Location

Airport or City:

Trip Planner

Search our weather history database for the weather conditions in past years. The results will help you decide how hot, cold, wet, or windy it might be!

Date:

Astronomy

Dec. 19, 2013 Rise Set
Actual Time 7:42 AM MST 4:35 PM MST
Civil Twilight 7:09 AM MST 5:09 PM MST
Nautical Twilight 6:32 AM MST 5:45 PM MST
Astronomical Twilight 5:57 AM MST 6:20 PM MST
Moon 7:08 PM MST (12/19) 8:58 AM MST (12/19)
Length of Visible Light 9h 59m
Length of Day
8h 53m
Waning Gibbous, 95% of the Moon is Illuminated
Dec 19
Waning Gibbous
Dec 25
Last Quarter
Jan 1
New
Jan 7
First Quarter
Jan 15
Full

Hourly Weather History & Observations

Time (MST) Temp. Windchill Dew Point Humidity Pressure Visibility Wind Dir Wind Speed Gust Speed Precip Events Conditions
12:53 AM 17.1 °F 10.0 °F 15.1 °F 92% 29.74 in 10.0 mi NE 4.6 mph - N/A   Clear
1:53 AM 19.9 °F 13.4 °F 18.0 °F 92% 29.73 in 10.0 mi NE 4.6 mph - N/A   Clear
2:53 AM 18.0 °F 9.8 °F 15.1 °F 88% 29.75 in 10.0 mi North 5.8 mph - N/A   Clear
3:27 AM 24.1 °F 15.2 °F 21.9 °F 91% 29.64 in 9.0 mi NE 8.1 mph - N/A   Mostly Cloudy
3:36 AM 24.1 °F 17.0 °F 21.9 °F 91% 29.65 in 9.0 mi ENE 5.8 mph - N/A   Overcast
3:53 AM 25.0 °F 20.7 °F 23.0 °F 92% 29.75 in 7.0 mi Variable 3.5 mph - N/A   Overcast
4:53 AM 27.0 °F 16.1 °F 25.0 °F 92% 29.80 in 10.0 mi NNW 12.7 mph - N/A   Overcast
5:44 AM 25.0 °F 12.2 °F 21.0 °F 85% 29.72 in 10.0 mi North 16.1 mph - N/A   Overcast
5:53 AM 24.1 °F 10.6 °F 19.9 °F 84% 29.83 in 10.0 mi North 17.3 mph - N/A   Overcast
6:53 AM 19.9 °F 5.7 °F 15.1 °F 81% 29.89 in 6.0 mi NNW 16.1 mph - 0.00 in Snow Light Snow
7:12 AM 19.0 °F 4.0 °F 14.0 °F 81% 29.77 in 2.5 mi NNW 17.3 mph - 0.00 in Snow Light Snow
7:32 AM 18.0 °F 2.2 °F 14.0 °F 84% 29.78 in 1.5 mi NNW 18.4 mph - 0.00 in Snow Light Snow
7:53 AM 16.0 °F -0.4 °F 12.0 °F 84% 29.94 in 1.2 mi NNW 18.4 mph - 0.00 in Snow Light Snow
8:14 AM 16.0 °F -0.9 °F 12.0 °F 84% 29.81 in 0.5 mi NNW 19.6 mph 23.0 mph 0.00 in Fog , Snow Light Snow
8:53 AM 14.0 °F -2.0 °F 10.9 °F 88% 29.98 in 0.8 mi NW 16.1 mph - 0.00 in Snow Light Snow
9:09 AM 14.0 °F -3.0 °F 10.0 °F 84% 29.85 in 1.0 mi NW 18.4 mph - 0.00 in Snow Light Snow
9:53 AM 14.0 °F -0.8 °F 9.0 °F 80% 30.04 in 1.0 mi NNW 13.8 mph - 0.00 in Snow Light Snow
10:21 AM 12.9 °F -2.2 °F 9.0 °F 84% 29.91 in 0.8 mi NNW 13.8 mph - 0.00 in Snow Light Snow
10:42 AM 12.9 °F -3.4 °F 8.1 °F 81% 29.92 in 1.0 mi NNW 16.1 mph - 0.01 in Snow Light Snow
10:53 AM 12.9 °F -2.2 °F 8.1 °F 81% 30.10 in 1.0 mi NNW 13.8 mph - 0.01 in Snow Light Snow
11:11 AM 12.0 °F -2.0 °F 8.1 °F 84% 29.94 in 0.8 mi NW 11.5 mph - 0.00 in Snow Light Snow
11:53 AM 12.0 °F -0.4 °F 8.1 °F 84% 30.12 in 0.5 mi NW 9.2 mph - 0.00 in Fog , Snow Snow
12:27 PM 12.0 °F -3.4 °F 8.1 °F 84% 29.95 in 0.8 mi WNW 13.8 mph - 0.00 in Snow Light Snow
12:51 PM 12.2 °F -1.0 °F 8.6 °F 85% 29.96 in 0.5 mi WNW 10.4 mph - 0.01 in Fog , Snow Snow
12:53 PM 12.0 °F -1.3 °F 9.0 °F 88% 30.14 in 0.5 mi WNW 10.4 mph - 0.01 in Fog , Snow Snow
1:19 PM 12.0 °F -0.4 °F 7.0 °F 80% 29.96 in 0.8 mi WNW 9.2 mph - 0.00 in Snow Light Snow
1:24 PM 12.0 °F 1.5 °F 7.0 °F 80% 29.95 in 1.2 mi WNW 6.9 mph - 0.00 in Snow Light Snow
1:31 PM 12.0 °F 0.5 °F 7.0 °F 80% 29.95 in 3.0 mi West 8.1 mph - 0.00 in Snow Light Snow
1:39 PM 12.9 °F -0.9 °F 7.0 °F 77% 29.96 in 2.0 mi WNW 11.5 mph - 0.00 in Snow Light Snow
1:51 PM 12.2 °F -3.1 °F 6.8 °F 79% 29.96 in 2.0 mi WNW 13.8 mph - 0.00 in Snow Light Snow
1:53 PM 12.9 °F -2.2 °F 7.0 °F 77% 30.13 in 2.0 mi West 13.8 mph - 0.00 in Snow Light Snow
2:01 PM 12.9 °F -2.8 °F 7.0 °F 77% 29.96 in 2.5 mi WNW 15.0 mph - 0.00 in Snow Light Snow
2:10 PM 12.9 °F -2.8 °F 6.1 °F 74% 29.96 in 5.0 mi WNW 15.0 mph - 0.00 in Snow Light Snow
2:26 PM 12.9 °F -3.9 °F 6.1 °F 74% 29.96 in 2.0 mi WNW 17.3 mph 23.0 mph 0.00 in Snow Light Snow
2:37 PM 12.9 °F -3.4 °F 6.1 °F 74% 29.96 in 5.0 mi WNW 16.1 mph - 0.00 in Snow Light Snow
2:53 PM 12.9 °F -4.9 °F 5.0 °F 71% 30.16 in 7.0 mi WNW 19.6 mph - 0.00 in Snow Light Snow
3:14 PM 12.9 °F -3.4 °F 6.1 °F 74% 29.98 in 1.8 mi West 16.1 mph - 0.00 in Snow Light Snow
3:43 PM 12.9 °F -2.2 °F 7.0 °F 77% 29.99 in 1.0 mi West 13.8 mph - 0.00 in Snow Light Snow
3:53 PM 12.0 °F -2.0 °F 7.0 °F 80% 30.16 in 0.8 mi West 11.5 mph - 0.00 in Snow Light Snow
4:17 PM 12.0 °F -1.3 °F 8.1 °F 84% 29.99 in 1.2 mi West 10.4 mph - 0.00 in Snow Light Snow
4:26 PM 12.0 °F -0.4 °F 7.0 °F 80% 29.99 in 2.0 mi West 9.2 mph - 0.00 in Snow Light Snow
4:38 PM 12.0 °F 0.5 °F 7.0 °F 80% 29.99 in 4.0 mi West 8.1 mph - 0.00 in Snow Light Snow
4:53 PM 12.0 °F 2.7 °F 8.1 °F 84% 30.14 in 5.0 mi WSW 5.8 mph - 0.00 in   Overcast
5:27 PM 10.9 °F 2.9 °F 8.1 °F 88% 29.97 in 6.0 mi SSW 4.6 mph - N/A   Overcast
5:48 PM 10.4 °F - 6.8 °F 85% 29.98 in 10.0 mi Calm Calm - N/A   Mostly Cloudy
5:53 PM 10.9 °F - 7.0 °F 84% 30.15 in 10.0 mi Calm Calm - N/A   Scattered Clouds
6:16 PM 7.0 °F - 3.9 °F 87% 29.98 in 10.0 mi Calm Calm - N/A   Mostly Cloudy
6:41 PM 7.0 °F - 3.9 °F 87% 29.98 in 10.0 mi Calm Calm - N/A   Scattered Clouds
6:53 PM 8.1 °F 1.4 °F 5.0 °F 87% 30.18 in 10.0 mi East 3.5 mph - N/A   Partly Cloudy
7:53 PM 5.0 °F -2.1 °F 3.0 °F 92% 30.22 in 10.0 mi SSE 3.5 mph - N/A   Mostly Cloudy
8:53 PM 8.1 °F -3.2 °F 5.0 °F 87% 30.20 in 10.0 mi South 6.9 mph - N/A   Overcast
9:53 PM 1.9 °F -10.6 °F -0.0 °F 91% 30.19 in 10.0 mi South 6.9 mph - N/A   Clear
10:53 PM -2.9 °F - -7.1 °F 82% 30.18 in 10.0 mi Calm Calm - N/A   Clear
11:53 PM -7.1 °F - -11.0 °F 83% 30.19 in 10.0 mi Calm Calm - N/A   Clear